| time (UTC) | temp C | wind direction | speed KPH | gust KPH | rain 1hr cm | rain 24hr cm | rain mn cm | humidity % | barometer mb |
| 20260509171202 | 16 | 198 | 6.4 | 17.7 | 0.00 | 0.00 | 0.00 | 69 | 1005.4 |
| 20260509170202 | 16 | 266 | 6.4 | 14.5 | 0.00 | 0.00 | 0.00 | 70 | 1005.5 |
| 20260509165202 | 16 | 193 | 6.4 | 14.5 | 0.00 | 0.00 | 0.00 | 72 | 1005.6 |
| 20260509164202 | 16 | 262 | 3.2 | 16.1 | 0.00 | 0.00 | 0.00 | 74 | 1005.7 |
| 20260509163223 | 15 | 293 | 6.4 | 20.9 | 0.00 | 0.00 | 0.00 | 74 | 1005.9 |
| 20260509162203 | 15 | 211 | 4.8 | 11.3 | 0.00 | 0.00 | 0.00 | 73 | 1006.1 |
| 20260509161203 | 15 | 293 | 3.2 | 14.5 | 0.00 | 0.00 | 0.00 | 74 | 1006.1 |
| 20260509160202 | 15 | 231 | 3.2 | 11.3 | 0.00 | 0.00 | 0.00 | 75 | 1006.1 |
| 20260509155205 | 15 | 240 | 4.8 | 11.3 | 0.00 | 0.00 | 0.00 | 75 | 1006.1 |
| 20260509154204 | 15 | 209 | 4.8 | 11.3 | 0.00 | 0.00 | 0.00 | 75 | 1006.3 |
| 20260509153202 | 15 | 214 | 3.2 | 9.7 | 0.00 | 0.00 | 0.00 | 77 | 1006.3 |
| 20260509152244 | 14 | 244 | 3.2 | 12.9 | 0.00 | 0.00 | 0.00 | 78 | 1006.3 |
| 20260509151203 | 14 | 225 | 1.6 | 9.7 | 0.00 | 0.00 | 0.00 | 77 | 1006.4 |
| 20260509150203 | 14 | 189 | 1.6 | 8.0 | 0.00 | 0.00 | 0.00 | 78 | 1006.5 |
| 20260509145203 | 13 | 168 | 0.0 | 8.0 | 0.00 | 0.00 | 0.00 | 79 | 1006.4 |
| 20260509144203 | 13 | 298 | 3.2 | 9.7 | 0.00 | 0.00 | 0.00 | 79 | 1006.4 |
| 20260509143202 | 13 | 272 | 4.8 | 9.7 | 0.00 | 0.00 | 0.00 | 80 | 1006.5 |
| 20260509142203 | 13 | 180 | 3.2 | 8.0 | 0.00 | 0.00 | 0.00 | 82 | 1006.6 |
| 20260509141227 | 13 | 197 | 1.6 | 9.7 | 0.00 | 0.00 | 0.00 | 82 | 1006.7 |
| 20260509140202 | 13 | 197 | 1.6 | 8.0 | 0.00 | 0.00 | 0.00 | 83 | 1006.8 |
| 20260509135202 | 12 | 222 | 1.6 | 6.4 | 0.00 | 0.00 | 0.00 | 83 | 1006.8 |
| 20260509134202 | 12 | 252 | 3.2 | 6.4 | 0.00 | 0.00 | 0.00 | 84 | 1006.9 |
| 20260509133204 | 12 | 207 | 4.8 | 9.7 | 0.00 | 0.00 | 0.00 | 84 | 1006.9 |
| 20260509132203 | 12 | 204 | 1.6 | 11.3 | 0.00 | 0.00 | 0.00 | 85 | 1006.9 |
| 20260509131204 | 12 | 238 | 0.0 | 1.6 | 0.00 | 0.00 | 0.00 | 86 | 1007.0 |
| 20260509130225 | 11 | 199 | 0.0 | 0.0 | 0.00 | 0.00 | 0.00 | 86 | 1006.9 |
| 20260509125202 | 11 | 200 | 0.0 | 0.0 | 0.00 | 0.00 | 0.00 | 87 | 1007.0 |
| 20260509124204 | 11 | 190 | 0.0 | 3.2 | 0.00 | 0.00 | 0.00 | 88 | 1007.2 |
| 20260509123203 | 10 | 175 | 1.6 | 6.4 | 0.00 | 0.00 | 0.00 | 88 | 1007.2 |
| 20260509122202 | 10 | 197 | 0.0 | 0.0 | 0.00 | 0.00 | 0.00 | 89 | 1007.3 |
| 20260509121202 | 10 | 246 | 0.0 | 1.6 | 0.00 | 0.00 | 0.00 | 90 | 1007.4 |
| 20260509120202 | 9 | 258 | 0.0 | 1.6 | 0.00 | 0.03 | 0.00 | 90 | 1007.6 |
| 20260509115223 | 8 | 267 | 0.0 | 1.6 | 0.00 | 0.03 | 0.00 | 90 | 1007.4 |
| 20260509114224 | 7 | 283 | 0.0 | 0.0 | 0.00 | 0.03 | 0.00 | 90 | 1007.4 |
| 20260509113225 | 6 | 283 | 0.0 | 0.0 | 0.00 | 0.05 | 0.00 | 89 | 1007.4 |
| 20260509112203 | 6 | 283 | 0.0 | 1.6 | 0.00 | 0.10 | 0.00 | 89 | 1007.3 |
| 20260509111224 | 5 | 248 | 0.0 | 0.0 | 0.00 | 0.13 | 0.00 | 89 | 1007.5 |
| 20260509110202 | 5 | 248 | 0.0 | 0.0 | 0.00 | 0.18 | 0.00 | 88 | 1007.6 |
| 20260509105204 | 5 | 232 | 0.0 | 0.0 | 0.00 | 0.18 | 0.00 | 88 | 1007.7 |
| 20260509104223 | 4 | 232 | 0.0 | 0.0 | 0.00 | 0.18 | 0.00 | 87 | 1007.8 |
| 20260509103203 | 4 | 232 | 0.0 | 0.0 | 0.00 | 0.20 | 0.00 | 87 | 1007.6 |
| 20260509102202 | 4 | 232 | 0.0 | 0.0 | 0.00 | 0.20 | 0.00 | 86 | 1007.6 |
| 20260509101203 | 4 | 232 | 0.0 | 0.0 | 0.00 | 0.20 | 0.00 | 86 | 1007.6 |
| 20260509100202 | 4 | 232 | 0.0 | 0.0 | 0.00 | 0.20 | 0.00 | 86 | 1007.4 |
| 20260509095225 | 4 | 232 | 0.0 | 0.0 | 0.00 | 0.23 | 0.00 | 85 | 1007.5 |
| 20260509094202 | 4 | 232 | 0.0 | 0.0 | 0.00 | 0.23 | 0.00 | 85 | 1007.6 |
| 20260509093202 | 4 | 232 | 0.0 | 0.0 | 0.00 | 0.23 | 0.00 | 85 | 1007.5 |
| 20260509092202 | 4 | 232 | 0.0 | 0.0 | 0.00 | 0.23 | 0.00 | 85 | 1007.6 |
| 20260509091204 | 4 | 232 | 0.0 | 0.0 | 0.00 | 0.23 | 0.00 | 84 | 1007.5 |
| 20260509090226 | 4 | 232 | 0.0 | 0.0 | 0.00 | 0.23 | 0.00 | 84 | 1007.7 |
| 20260509085203 | 4 | 232 | 0.0 | 0.0 | 0.00 | 0.23 | 0.00 | 84 | 1007.7 |
| 20260509083223 | 5 | 232 | 0.0 | 0.0 | 0.00 | 0.23 | 0.00 | 84 | 1007.8 |
| 20260509082226 | 5 | 232 | 0.0 | 0.0 | 0.00 | 0.23 | 0.00 | 84 | 1007.8 |
| 20260509081224 | 4 | 232 | 0.0 | 0.0 | 0.00 | 0.23 | 0.00 | 84 | 1007.8 |
| 20260509075203 | 4 | 232 | 0.0 | 0.0 | 0.00 | 0.23 | 0.00 | 83 | 1007.9 |
| 20260509074202 | 4 | 232 | 0.0 | 0.0 | 0.00 | 0.23 | 0.00 | 83 | 1008.1 |
| 20260509073204 | 4 | 232 | 0.0 | 0.0 | 0.00 | 0.23 | 0.00 | 83 | 1008.1 |
| 20260509072203 | 3 | 232 | 0.0 | 0.0 | 0.00 | 0.23 | 0.00 | 83 | 1008.2 |
| 20260509071203 | 3 | 232 | 0.0 | 0.0 | 0.00 | 0.23 | 0.00 | 83 | 1008.3 |
| 20260509070202 | 3 | 232 | 0.0 | 0.0 | 0.00 | 0.23 | 0.00 | 82 | 1008.3 |
| 20260509065202 | 3 | 232 | 0.0 | 0.0 | 0.00 | 0.23 | 0.00 | 82 | 1008.4 |
| 20260509064202 | 3 | 232 | 0.0 | 0.0 | 0.00 | 0.23 | 0.00 | 82 | 1008.6 |
| 20260509063202 | 3 | 232 | 0.0 | 0.0 | 0.00 | 0.23 | 0.00 | 82 | 1008.7 |
| 20260509062225 | 3 | 232 | 0.0 | 0.0 | 0.00 | 0.23 | 0.00 | 81 | 1008.8 |
| 20260509061224 | 3 | 232 | 0.0 | 0.0 | 0.00 | 0.23 | 0.00 | 82 | 1008.9 |
| 20260509060204 | 3 | 232 | 0.0 | 0.0 | 0.00 | 0.23 | 0.00 | 81 | 1009.2 |
| 20260509055203 | 3 | 232 | 0.0 | 0.0 | 0.00 | 0.23 | 0.00 | 81 | 1009.3 |
| 20260509054203 | 3 | 232 | 0.0 | 0.0 | 0.00 | 0.23 | 0.00 | 80 | 1009.4 |
| 20260509053225 | 4 | 232 | 0.0 | 0.0 | 0.00 | 0.23 | 0.00 | 80 | 1009.4 |
| 20260509052202 | 4 | 232 | 0.0 | 0.0 | 0.00 | 0.23 | 0.00 | 79 | 1009.4 |
| 20260509051203 | 4 | 232 | 0.0 | 0.0 | 0.00 | 0.23 | 0.00 | 79 | 1009.6 |
| 20260509050202 | 4 | 232 | 0.0 | 0.0 | 0.00 | 0.23 | 0.00 | 78 | 1009.7 |
| 20260509045202 | 4 | 232 | 0.0 | 0.0 | 0.00 | 0.23 | 0.00 | 78 | 1009.8 |
| 20260509044203 | 4 | 232 | 0.0 | 0.0 | 0.00 | 0.23 | 0.00 | 78 | 1009.8 |
| 20260509043202 | 4 | 232 | 0.0 | 0.0 | 0.00 | 0.23 | 0.00 | 78 | 1010.0 |
| 20260509042226 | 4 | 232 | 0.0 | 0.0 | 0.00 | 0.23 | 0.00 | 77 | 1010.1 |
| 20260509041203 | 4 | 232 | 0.0 | 0.0 | 0.00 | 0.23 | 0.00 | 75 | 1010.1 |
| 20260509040205 | 4 | 232 | 0.0 | 0.0 | 0.00 | 0.23 | 0.00 | 75 | 1010.1 |
| 20260509035225 | 4 | 232 | 0.0 | 0.0 | 0.00 | 0.23 | 0.23 | 74 | 1010.2 |
| 20260509034202 | 4 | 232 | 0.0 | 0.0 | 0.00 | 0.23 | 0.23 | 73 | 1010.3 |
| 20260509033203 | 4 | 232 | 0.0 | 0.0 | 0.00 | 0.23 | 0.23 | 72 | 1010.3 |
| 20260509032202 | 5 | 232 | 0.0 | 0.0 | 0.00 | 0.23 | 0.23 | 71 | 1010.4 |
| 20260509031204 | 5 | 232 | 0.0 | 0.0 | 0.00 | 0.23 | 0.23 | 71 | 1010.5 |
| 20260509030202 | 5 | 232 | 0.0 | 0.0 | 0.00 | 0.23 | 0.23 | 70 | 1010.6 |
| 20260509025224 | 5 | 232 | 0.0 | 0.0 | 0.00 | 0.25 | 0.23 | 70 | 1010.6 |
| 20260509024202 | 5 | 232 | 0.0 | 0.0 | 0.00 | 0.25 | 0.23 | 68 | 1010.6 |
| 20260509023203 | 6 | 232 | 0.0 | 0.0 | 0.00 | 0.25 | 0.23 | 68 | 1010.6 |
| 20260509022204 | 6 | 232 | 0.0 | 0.0 | 0.00 | 0.25 | 0.23 | 68 | 1010.7 |
| 20260509021202 | 6 | 232 | 0.0 | 0.0 | 0.00 | 0.25 | 0.23 | 67 | 1010.6 |
| 20260509020203 | 6 | 232 | 0.0 | 0.0 | 0.00 | 0.25 | 0.23 | 66 | 1010.5 |
| 20260509015202 | 7 | 232 | 0.0 | 0.0 | 0.00 | 0.28 | 0.23 | 65 | 1010.3 |
| 20260509014246 | 7 | 232 | 0.0 | 0.0 | 0.00 | 0.33 | 0.23 | 63 | 1010.3 |
| 20260509013203 | 7 | 232 | 0.0 | 0.0 | 0.00 | 0.33 | 0.23 | 62 | 1010.3 |
| 20260509012205 | 7 | 232 | 0.0 | 0.0 | 0.00 | 0.38 | 0.23 | 55 | 1010.2 |
| 20260509011203 | 8 | 232 | 0.0 | 0.0 | 0.00 | 0.43 | 0.23 | 56 | 1010.2 |
| 20260509010203 | 8 | 232 | 0.0 | 0.0 | 0.00 | 0.48 | 0.23 | 56 | 1010.2 |
| 20260509005202 | 9 | 232 | 0.0 | 0.0 | 0.00 | 0.51 | 0.23 | 50 | 1010.2 |
| 20260509004204 | 10 | 232 | 0.0 | 0.0 | 0.00 | 0.51 | 0.23 | 52 | 1010.2 |
| 20260509003203 | 10 | 232 | 0.0 | 0.0 | 0.00 | 0.51 | 0.23 | 51 | 1010.2 |
| 20260509002223 | 11 | 232 | 0.0 | 0.0 | 0.00 | 0.51 | 0.23 | 50 | 1010.0 |
| 20260509001204 | 11 | 232 | 0.0 | 0.0 | 0.00 | 0.51 | 0.23 | 47 | 1010.0 |
| 20260509000204 | 11 | 232 | 0.0 | 0.0 | 0.00 | 0.51 | 0.23 | 45 | 1009.9 |
| 20260508235202 | 11 | 232 | 0.0 | 0.0 | 0.00 | 0.51 | 0.23 | 42 | 1009.9 |
| 20260508234203 | 11 | 231 | 0.0 | 4.8 | 0.00 | 0.51 | 0.23 | 42 | 1009.8 |
| 20260508233202 | 12 | 231 | 0.0 | 6.4 | 0.00 | 0.51 | 0.23 | 45 | 1009.8 |
| 20260508232202 | 12 | 281 | 0.0 | 3.2 | 0.00 | 0.51 | 0.23 | 46 | 1009.8 |
| 20260508231202 | 12 | 280 | 0.0 | 9.7 | 0.00 | 0.51 | 0.23 | 49 | 1009.8 |
| 20260508230203 | 12 | 220 | 1.6 | 6.4 | 0.00 | 0.51 | 0.23 | 46 | 1009.8 |
| 20260508225205 | 12 | 220 | 3.2 | 8.0 | 0.00 | 0.51 | 0.23 | 46 | 1009.8 |
| 20260508224225 | 12 | 161 | 4.8 | 8.0 | 0.00 | 0.51 | 0.23 | 46 | 1009.8 |
| 20260508223203 | 12 | 200 | 0.0 | 6.4 | 0.00 | 0.51 | 0.23 | 47 | 1009.9 |
| 20260508222226 | 12 | 222 | 1.6 | 6.4 | 0.00 | 0.51 | 0.23 | 48 | 1009.9 |
| 20260508221203 | 12 | 218 | 3.2 | 6.4 | 0.00 | 0.51 | 0.23 | 47 | 1009.9 |
| 20260508220204 | 12 | 217 | 4.8 | 8.0 | 0.00 | 0.51 | 0.23 | 47 | 1010.0 |
| 20260508215203 | 12 | 302 | 3.2 | 8.0 | 0.00 | 0.51 | 0.23 | 47 | 1010.0 |
| 20260508214223 | 12 | 275 | 4.8 | 9.7 | 0.00 | 0.51 | 0.23 | 48 | 1010.1 |
| 20260508213226 | 13 | 291 | 6.4 | 16.1 | 0.00 | 0.51 | 0.23 | 47 | 1010.0 |
| 20260508212204 | 13 | 283 | 3.2 | 9.7 | 0.00 | 0.51 | 0.23 | 50 | 1010.0 |
| 20260508211203 | 13 | 203 | 3.2 | 11.3 | 0.00 | 0.51 | 0.23 | 46 | 1010.0 |
| 20260508210203 | 13 | 236 | 3.2 | 12.9 | 0.00 | 0.51 | 0.23 | 48 | 1010.0 |
| 20260508205203 | 13 | 298 | 11.3 | 17.7 | 0.00 | 0.51 | 0.23 | 44 | 1010.0 |
| 20260508204202 | 13 | 285 | 6.4 | 12.9 | 0.00 | 0.51 | 0.23 | 49 | 1010.1 |
| 20260508203203 | 13 | 272 | 3.2 | 11.3 | 0.00 | 0.51 | 0.23 | 48 | 1010.1 |
| 20260508202202 | 13 | 250 | 4.8 | 11.3 | 0.00 | 0.51 | 0.23 | 54 | 1010.2 |
| 20260508201224 | 13 | 191 | 3.2 | 9.7 | 0.00 | 0.51 | 0.23 | 52 | 1010.3 |
| 20260508200204 | 13 | 207 | 3.2 | 11.3 | 0.00 | 0.51 | 0.23 | 51 | 1010.4 |
| 20260508195202 | 13 | 249 | 3.2 | 19.3 | 0.00 | 0.51 | 0.23 | 52 | 1010.6 |
| 20260508194202 | 13 | 125 | 4.8 | 9.7 | 0.00 | 0.51 | 0.23 | 55 | 1010.7 |
| 20260508193202 | 13 | 198 | 4.8 | 9.7 | 0.00 | 0.51 | 0.23 | 55 | 1010.8 |
| 20260508192225 | 13 | 247 | 6.4 | 12.9 | 0.00 | 0.51 | 0.23 | 53 | 1011.0 |
| 20260508191202 | 13 | 284 | 6.4 | 19.3 | 0.00 | 0.51 | 0.23 | 55 | 1011.0 |
| 20260508190204 | 13 | 276 | 1.6 | 14.5 | 0.00 | 0.51 | 0.23 | 58 | 1011.2 |
| 20260508185203 | 13 | 263 | 8.0 | 16.1 | 0.00 | 0.51 | 0.23 | 58 | 1011.3 |
| 20260508184202 | 13 | 313 | 4.8 | 9.7 | 0.00 | 0.51 | 0.23 | 60 | 1011.4 |
| 20260508183203 | 13 | 250 | 6.4 | 17.7 | 0.00 | 0.51 | 0.23 | 57 | 1011.4 |
| 20260508182202 | 13 | 270 | 3.2 | 12.9 | 0.00 | 0.51 | 0.23 | 59 | 1011.4 |
| 20260508181225 | 12 | 252 | 1.6 | 14.5 | 0.00 | 0.51 | 0.23 | 59 | 1011.4 |
| 20260508180202 | 13 | 321 | 6.4 | 17.7 | 0.00 | 0.51 | 0.23 | 60 | 1011.5 |
| 20260508175202 | 12 | 267 | 3.2 | 9.7 | 0.00 | 0.51 | 0.23 | 62 | 1011.4 |
| 20260508174203 | 11 | 282 | 8.0 | 12.9 | 0.00 | 0.51 | 0.23 | 59 | 1011.5 |
| 20260508173203 | 11 | 169 | 1.6 | 11.3 | 0.00 | 0.51 | 0.23 | 62 | 1011.7 |
| 20260508172203 | 11 | 279 | 6.4 | 12.9 | 0.00 | 0.51 | 0.23 | 61 | 1011.8 |